AXIOM-2 DEB

Last updated on Fri Aug 11 2023 00:02:07 GMT+0000 (Coordinated Universal Time)

1 56751U 23070B 23222.77201398 .02233548 12102-4 51712-3 0 9990 2 56751 51.4160 37.5233 0002524 330.7212 42.1858 16.29118985 11388

Satellite not in orbit